Weather History for KWAL - October, 2013

Change the Weather History Date:

Tuesday, October 1, 2013

  Actual Average Record
Temperature  
Mean Temperature 67 °F 64 °F  
Max Temperature 82 °F 73 °F 89 °F (1986)
Min Temperature 52 °F 56 °F 41 °F (1993)
Degree Days  
Heating Degree Days 0    
Month to date heating degree days 0  
Since 1 July heating degree days 22  
Cooling Degree Days 2    
Month to date cooling degree days 2  
Year to date cooling degree days 1430  
Growing Degree Days 17 (Base 50)    
Moisture  
Dew Point 56 °F    
Average Humidity 65    
Maximum Humidity 86    
Minimum Humidity 43    
Precipitation  
Precipitation 0.00 in 0.10 in 0.87 in (2010)
Month to date precipitation 0.00 0.10  
Year to date precipitation 30.66 31.47  
Sea Level Pressure  
Sea Level Pressure 30.03 in    
Wind  
Wind Speed 6 mph (West)    
Max Wind Speed 14 mph    
Max Gust Speed 19 mph    
Visibility 10 miles    
Events      
T = Trace of Precipitation, MM = Missing Value Source: NWS Daily Summary

Daily Weather History Graph

Daily Weather History Graph

Search for Another Location

Airport or City:

Trip Planner

Search our weather history database for the weather conditions in past years. The results will help you decide how hot, cold, wet, or windy it might be!

Date:

Astronomy

Oct. 01, 2013 Rise Set
Actual Time 6:57 AM EDT 6:44 PM EDT
Civil Twilight 6:31 AM EDT 7:10 PM EDT
Nautical Twilight 6:00 AM EDT 7:41 PM EDT
Astronomical Twilight 5:30 AM EDT 8:11 PM EDT
Moon 3:32 AM EDT (10/1) 4:44 PM EDT (10/1)
Length of Visible Light 12h 39m
Length of Day
11h 46m
Waning Crescent, 12% of the Moon is Illuminated
Oct 1
Waning Crescent
Oct 4
New
Oct 11
First Quarter
Oct 18
Full
Oct 26
Last Quarter

Hourly Weather History & Observations

Time (EDT) Temp. Heat Index Dew Point Humidity Pressure Visibility Wind Dir Wind Speed Gust Speed Precip Events Conditions
12:54 AM 57.0 °F - 54.0 °F 89% 30.04 in 10.0 mi Calm Calm - N/A   Clear
1:54 AM 55.0 °F - 52.0 °F 89% 30.04 in 10.0 mi Calm Calm - N/A   Clear
2:54 AM 55.0 °F - 52.0 °F 89% 30.04 in 10.0 mi Calm Calm - N/A   Clear
3:54 AM 55.9 °F - 52.0 °F 87% 30.04 in 10.0 mi Calm Calm - N/A   Clear
4:54 AM 55.0 °F - 52.0 °F 89% 30.04 in 10.0 mi Calm Calm - N/A   Clear
5:54 AM 55.0 °F - 51.1 °F 86% 30.05 in 10.0 mi Calm Calm - N/A   Clear
6:54 AM 55.0 °F - 52.0 °F 89% 30.05 in 10.0 mi West 3.5 mph - N/A   Clear
7:54 AM 61.0 °F - 55.9 °F 83% 30.07 in 10.0 mi WNW 4.6 mph - N/A   Clear
8:54 AM 68.0 °F - 57.9 °F 70% 30.08 in 10.0 mi WNW 8.1 mph - N/A   Clear
9:54 AM 72.0 °F - 57.9 °F 61% 30.08 in 10.0 mi NW 9.2 mph - N/A   Clear
10:54 AM 75.9 °F - 55.9 °F 50% 30.07 in 10.0 mi WNW 10.4 mph - N/A   Clear
11:54 AM 78.1 °F - 55.9 °F 46% 30.06 in 10.0 mi WNW 9.2 mph - N/A   Clear
12:54 PM 79.0 °F - 55.0 °F 44% 30.04 in 10.0 mi WNW 10.4 mph - N/A   Clear
1:54 PM 82.0 °F 81.7 °F 57.0 °F 42% 30.02 in 10.0 mi WNW 12.7 mph - N/A   Clear
2:54 PM 82.0 °F 81.7 °F 57.0 °F 42% 30.01 in 10.0 mi West 5.8 mph - N/A   Clear
3:54 PM 81.0 °F 81.0 °F 57.0 °F 44% 29.99 in 10.0 mi West 12.7 mph - N/A   Clear
4:54 PM 80.1 °F 80.4 °F 57.0 °F 45% 29.99 in 10.0 mi NW 8.1 mph - N/A   Clear
5:54 PM 77.0 °F - 57.0 °F 50% 29.99 in 10.0 mi West 9.2 mph - N/A   Clear
6:54 PM 73.0 °F - 57.0 °F 57% 30.00 in 10.0 mi West 3.5 mph - N/A   Clear
7:54 PM 71.1 °F - 59.0 °F 66% 30.01 in 10.0 mi West 5.8 mph - N/A   Clear
8:54 PM 70.0 °F - 59.0 °F 68% 30.01 in 10.0 mi West 6.9 mph - N/A   Clear
9:54 PM 68.0 °F - 57.9 °F 70% 30.02 in 10.0 mi SW 6.9 mph - N/A   Clear
10:54 PM 68.0 °F - 59.0 °F 73% 30.02 in 10.0 mi WSW 5.8 mph - N/A   Clear
11:54 PM 68.0 °F - 60.1 °F 76% 30.03 in 10.0 mi WSW 5.8 mph - N/A   Clear